This is the latest recevied weather packets stored in our database for station/object N9DRW. If no packets are shown the sender has not sent any weather packets the latest 10 day(s).
| Time | Temp. | Humidity | Pressure | Rain* | Wind** | Luminosity | Snow |
|---|---|---|---|---|---|---|---|
| 1778218926 | 7.22° C | 49% | 0 hPa | 0 mm | - | - | - |
| 1778218326 | 7.78° C | 48% | 0 hPa | 0 mm | - | - | - |
| 1778217726 | 8.33° C | 46% | 0 hPa | 0 mm | - | - | - |
| 1778217126 | 8.33° C | 45% | 0 hPa | 0 mm | - | - | - |
| 1778216526 | 8.89° C | 45% | 0 hPa | 0 mm | - | - | - |
| 1778215926 | 8.89° C | 44% | 0 hPa | 0 mm | - | - | - |
| 1778215326 | 8.89° C | 44% | 0 hPa | 0 mm | - | - | - |
| 1778214730 | 8.33° C | 45% | 0 hPa | 0 mm | - | - | - |
| 1778214126 | 8.33° C | 46% | 0 hPa | 0 mm | - | - | - |
| 1778213526 | 8.33° C | 45% | 0 hPa | 0 mm | - | - | - |
| 1778212926 | 8.33° C | 46% | 0 hPa | 0 mm | - | - | - |
| 1778212326 | 8.33° C | 48% | 0 hPa | 0 mm | - | - | - |
| 1778211726 | 8.33° C | 51% | 0 hPa | 0 mm | - | - | - |
| 1778211126 | 8.33° C | 50% | 0 hPa | 0 mm | - | - | - |
| 1778210526 | 8.89° C | 48% | 0 hPa | 0 mm | - | - | - |
| 1778209926 | 8.89° C | 48% | 0 hPa | 0 mm | - | - | - |
| 1778209327 | 8.89° C | 47% | 0 hPa | 0 mm | - | - | - |
| 1778208727 | 9.44° C | 47% | 0 hPa | 0 mm | - | - | - |
| 1778208126 | 9.44° C | 48% | 0 hPa | 0 mm | - | - | - |
| 1778207526 | 9.44° C | 48% | 0 hPa | 0 mm | - | - | - |
| 1778206926 | 9.44° C | 48% | 0 hPa | 0 mm | - | - | - |
| 1778206326 | 10° C | 47% | 0 hPa | 0 mm | - | - | - |
| 1778205727 | 10° C | 46% | 0 hPa | 0 mm | - | - | - |
| 1778205126 | 10.56° C | 44% | 0 hPa | 0 mm | - | - | - |
| 1778204526 | 11.67° C | 43% | 0 hPa | 0 mm | - | - | - |
* Rain latest hour (hover to see other rain measurements)
** Current wind speed in m/s (hover to see current wind gust speed)